Location: Ajisawe
(8.4333°N, 4.3833°E)
Time: 23:45:21
(UTC+00:00)

Vanguard 1 Rocket - Pass Details

Date: 21 April 2021
Orbit: 652 x 4224 km, 34.3° (Epoch: 10 May)

Event Time Altitude Azimuth Distance (km) Brightness Sun altitude
Rises 18:42:13 0° 317° (NW) 3,256 11.3 -12.9°
Reaches altitude 10° 18:44:18 10° 324° (NW) 2,512 10.4 -13.4°
Maximum altitude 18:49:56 47° 39° (NE) 1,547 8.4 -14.8°
Enters shadow 18:56:11 21° 102° (ESE) 3,155 9.5 -16.3°
